Time,TemperatureF,DewpointF,PressureIn,WindDirection,WindDirectionDegrees,WindSpeedMPH,WindSpeedGustMPH,Humidity,HourlyPrecipIn,Conditions,Clouds,dailyrainin,SoftwareType,DateUTC
2013-02-18 00:22:00,-999.0,-99.9,-100.00,SSW,200,28.0,32.0,-999,-99.99,,,-99.99,,2013-02-18 06:22:00,
2013-02-18 00:32:00,-999.0,-99.9,-100.00,SSW,200,28.0,32.0,-999,-99.99,,,-99.99,,2013-02-18 06:32:00,
2013-02-18 00:42:00,-999.0,-99.9,-100.00,SSW,210,31.0,36.0,-999,-99.99,,,-99.99,,2013-02-18 06:42:00,
2013-02-18 00:52:00,-999.0,-99.9,-100.00,SSW,210,31.0,36.0,-999,-99.99,,,-99.99,,2013-02-18 06:52:00,
2013-02-18 01:02:00,-999.0,-99.9,-100.00,SSW,210,31.0,36.0,-999,-99.99,,,-99.99,,2013-02-18 07:02:00,
2013-02-18 01:12:00,-999.0,-99.9,-100.00,SW,220,30.0,37.0,-999,-99.99,,,-99.99,,2013-02-18 07:12:00,
2013-02-18 01:22:00,-999.0,-99.9,-100.00,SW,220,30.0,37.0,-999,-99.99,,,-99.99,,2013-02-18 07:22:00,
2013-02-18 01:32:00,-999.0,-99.9,-100.00,SW,220,30.0,37.0,-999,-99.99,,,-99.99,,2013-02-18 07:32:00,
2013-02-18 01:42:00,-999.0,-99.9,-100.00,SW,220,31.0,36.0,-999,-99.99,,,-99.99,,2013-02-18 07:42:00,
2013-02-18 01:52:00,-999.0,-99.9,-100.00,SW,220,31.0,36.0,-999,-99.99,,,-99.99,,2013-02-18 07:52:00,
2013-02-18 02:00:00,-999.0,-99.9,-100.00,SW,220,30.0,37.0,-999,-99.99,,,-99.99,,2013-02-18 08:00:00,
2013-02-18 02:02:00,-999.0,-99.9,-100.00,SW,220,31.0,36.0,-999,-99.99,,,-99.99,,2013-02-18 08:02:00,
2013-02-18 02:11:00,-999.0,-99.9,-100.00,SSW,200,31.0,40.0,-999,-99.99,,,-99.99,,2013-02-18 08:11:00,
2013-02-18 02:22:00,-999.0,-99.9,-100.00,SSW,200,31.0,40.0,-999,-99.99,,,-99.99,,2013-02-18 08:22:00,
2013-02-18 02:33:00,-999.0,-99.9,-100.00,SSW,200,31.0,40.0,-999,-99.99,,,-99.99,,2013-02-18 08:33:00,
2013-02-18 02:42:00,-999.0,-99.9,-100.00,SW,220,30.0,37.0,-999,-99.99,,,-99.99,,2013-02-18 08:42:00,
2013-02-18 02:52:00,-999.0,-99.9,-100.00,SW,220,30.0,37.0,-999,-99.99,,,-99.99,,2013-02-18 08:52:00,
2013-02-18 03:42:00,-999.0,-99.9,-100.00,SSW,200,31.0,40.0,-999,-99.99,,,-99.99,,2013-02-18 09:42:00,
2013-02-18 03:52:00,-999.0,-99.9,-100.00,SSW,200,31.0,40.0,-999,-99.99,,,-99.99,,2013-02-18 09:52:00,
2013-02-18 04:01:00,-999.0,-99.9,-100.00,SSW,200,31.0,40.0,-999,-99.99,,,-99.99,,2013-02-18 10:01:00,
2013-02-18 04:12:00,-999.0,-99.9,-100.00,SSW,200,31.0,40.0,-999,-99.99,,,-99.99,,2013-02-18 10:12:00,
2013-02-18 04:22:00,-999.0,-99.9,-100.00,SSW,210,29.0,40.0,-999,-99.99,,,-99.99,,2013-02-18 10:22:00,
2013-02-18 04:32:00,-999.0,-99.9,-100.00,SSW,210,29.0,40.0,-999,-99.99,,,-99.99,,2013-02-18 10:32:00,
2013-02-18 04:43:00,-999.0,-99.9,-100.00,SSW,210,29.0,40.0,-999,-99.99,,,-99.99,,2013-02-18 10:43:00,
2013-02-18 05:43:00,-999.0,-99.9,-100.00,SSW,210,33.0,43.0,-999,-99.99,,,-99.99,,2013-02-18 11:43:00,
2013-02-18 05:54:00,-999.0,-99.9,-100.00,SSW,210,33.0,43.0,-999,-99.99,,,-99.99,,2013-02-18 11:54:00,
2013-02-18 06:02:00,-999.0,-99.9,-100.00,SSW,210,33.0,43.0,-999,-99.99,,,-99.99,,2013-02-18 12:02:00,
2013-02-18 06:12:00,-999.0,-99.9,-100.00,SSW,210,33.0,43.0,-999,-99.99,,,-99.99,,2013-02-18 12:12:00,
2013-02-18 07:00:00,-999.0,-99.9,-100.00,SW,230,32.0,39.0,-999,-99.99,,,-99.99,,2013-02-18 13:00:00,
2013-02-18 07:13:00,-999.0,-99.9,-100.00,SW,220,32.0,41.0,-999,-99.99,,,-99.99,,2013-02-18 13:13:00,
2013-02-18 07:23:00,-999.0,-99.9,-100.00,SW,220,32.0,41.0,-999,-99.99,,,-99.99,,2013-02-18 13:23:00,
2013-02-18 07:33:00,-999.0,-99.9,-100.00,SW,220,32.0,41.0,-999,-99.99,,,-99.99,,2013-02-18 13:33:00,
2013-02-18 07:43:00,-999.0,-99.9,-100.00,SW,230,32.0,39.0,-999,-99.99,,,-99.99,,2013-02-18 13:43:00,
2013-02-18 07:53:00,-999.0,-99.9,-100.00,SW,230,32.0,39.0,-999,-99.99,,,-99.99,,2013-02-18 13:53:00,
2013-02-18 08:12:00,-999.0,-99.9,-100.00,SSW,210,33.0,41.0,-999,-99.99,,,-99.99,,2013-02-18 14:12:00,
2013-02-18 08:22:00,-999.0,-99.9,-100.00,SSW,210,33.0,41.0,-999,-99.99,,,-99.99,,2013-02-18 14:22:00,
2013-02-18 08:34:00,-999.0,-99.9,-100.00,SSW,210,33.0,41.0,-999,-99.99,,,-99.99,,2013-02-18 14:34:00,
2013-02-18 08:42:00,-999.0,-99.9,-100.00,SSW,210,33.0,38.0,-999,-99.99,,,-99.99,,2013-02-18 14:42:00,
2013-02-18 08:54:00,-999.0,-99.9,-100.00,SSW,210,33.0,38.0,-999,-99.99,,,-99.99,,2013-02-18 14:54:00,
2013-02-18 09:02:00,-999.0,-99.9,-100.00,SSW,210,33.0,38.0,-999,-99.99,,,-99.99,,2013-02-18 15:02:00,
2013-02-18 09:12:00,-999.0,-99.9,-100.00,SSW,210,33.0,38.0,-999,-99.99,,,-99.99,,2013-02-18 15:12:00,
2013-02-18 09:42:00,-999.0,-99.9,-100.00,SSW,210,31.0,39.0,-999,-99.99,,,-99.99,,2013-02-18 15:42:00,
2013-02-18 09:53:00,-999.0,-99.9,-100.00,SSW,210,31.0,39.0,-999,-99.99,,,-99.99,,2013-02-18 15:53:00,
2013-02-18 10:03:00,-999.0,-99.9,-100.00,SSW,210,31.0,39.0,-999,-99.99,,,-99.99,,2013-02-18 16:03:00,
2013-02-18 10:12:00,-999.0,-99.9,-100.00,SSW,210,31.0,39.0,-999,-99.99,,,-99.99,,2013-02-18 16:12:00,
2013-02-18 10:23:00,-999.0,-99.9,-100.00,SW,220,28.0,33.0,-999,-99.99,,,-99.99,,2013-02-18 16:23:00,
2013-02-18 10:33:00,-999.0,-99.9,-100.00,SW,220,28.0,33.0,-999,-99.99,,,-99.99,,2013-02-18 16:33:00,
2013-02-18 10:43:00,-999.0,-99.9,-100.00,SW,220,28.0,33.0,-999,-99.99,,,-99.99,,2013-02-18 16:43:00,
2013-02-18 11:23:00,-999.0,-99.9,-100.00,SSW,210,29.0,33.0,-999,-99.99,,,-99.99,,2013-02-18 17:23:00,
2013-02-18 11:33:00,-999.0,-99.9,-100.00,SSW,210,29.0,33.0,-999,-99.99,,,-99.99,,2013-02-18 17:33:00,
2013-02-18 11:43:00,-999.0,-99.9,-100.00,SSW,210,29.0,33.0,-999,-99.99,,,-99.99,,2013-02-18 17:43:00,
2013-02-18 12:43:00,-999.0,-99.9,-100.00,SSW,210,28.0,31.0,-999,-99.99,,,-99.99,,2013-02-18 18:43:00,
2013-02-18 12:53:00,-999.0,-99.9,-100.00,SSW,210,28.0,31.0,-999,-99.99,,,-99.99,,2013-02-18 18:53:00,
2013-02-18 13:03:00,-999.0,-99.9,-100.00,SSW,210,28.0,31.0,-999,-99.99,,,-99.99,,2013-02-18 19:03:00,
2013-02-18 13:13:00,-999.0,-99.9,-100.00,SSW,210,25.0,29.0,-999,-99.99,,,-99.99,,2013-02-18 19:13:00,
2013-02-18 13:23:00,-999.0,-99.9,-100.00,SSW,210,25.0,29.0,-999,-99.99,,,-99.99,,2013-02-18 19:23:00,
2013-02-18 13:34:00,-999.0,-99.9,-100.00,SSW,210,25.0,29.0,-999,-99.99,,,-99.99,,2013-02-18 19:34:00,
2013-02-18 13:43:00,-999.0,-99.9,-100.00,SW,230,24.0,28.0,-999,-99.99,,,-99.99,,2013-02-18 19:43:00,
2013-02-18 13:53:00,-999.0,-99.9,-100.00,SW,230,24.0,28.0,-999,-99.99,,,-99.99,,2013-02-18 19:53:00,
2013-02-18 14:03:00,-999.0,-99.9,-100.00,SW,230,24.0,28.0,-999,-99.99,,,-99.99,,2013-02-18 20:03:00,
2013-02-18 14:13:00,-999.0,-99.9,-100.00,SSW,200,22.0,26.0,-999,-99.99,,,-99.99,,2013-02-18 20:13:00,
2013-02-18 14:34:00,-999.0,-99.9,-100.00,SSW,200,22.0,26.0,-999,-99.99,,,-99.99,,2013-02-18 20:34:00,
2013-02-18 14:43:00,-999.0,-99.9,-100.00,SW,220,22.0,24.0,-999,-99.99,,,-99.99,,2013-02-18 20:43:00,
2013-02-18 14:53:00,-999.0,-99.9,-100.00,SW,220,22.0,24.0,-999,-99.99,,,-99.99,,2013-02-18 20:53:00,
2013-02-18 15:03:00,-999.0,-99.9,-100.00,SW,220,22.0,24.0,-999,-99.99,,,-99.99,,2013-02-18 21:03:00,
2013-02-18 15:12:00,-999.0,-99.9,-100.00,SW,220,22.0,24.0,-999,-99.99,,,-99.99,,2013-02-18 21:12:00,
2013-02-18 15:23:00,-999.0,-99.9,-100.00,SW,230,20.0,23.0,-999,-99.99,,,-99.99,,2013-02-18 21:23:00,
2013-02-18 15:33:00,-999.0,-99.9,-100.00,SW,230,20.0,23.0,-999,-99.99,,,-99.99,,2013-02-18 21:33:00,
2013-02-18 15:43:00,-999.0,-99.9,-100.00,WSW,240,20.0,22.0,-999,-99.99,,,-99.99,,2013-02-18 21:43:00,
2013-02-18 15:54:00,-999.0,-99.9,-100.00,WSW,240,20.0,22.0,-999,-99.99,,,-99.99,,2013-02-18 21:54:00,
2013-02-18 16:03:00,-999.0,-99.9,-100.00,WSW,240,20.0,22.0,-999,-99.99,,,-99.99,,2013-02-18 22:03:00,
2013-02-18 16:13:00,-999.0,-99.9,-100.00,WSW,240,20.0,22.0,-999,-99.99,,,-99.99,,2013-02-18 22:13:00,
2013-02-18 16:44:00,-999.0,-99.9,-100.00,SSW,210,16.0,18.0,-999,-99.99,,,-99.99,,2013-02-18 22:44:00,
2013-02-18 16:54:00,-999.0,-99.9,-100.00,SSW,210,16.0,18.0,-999,-99.99,,,-99.99,,2013-02-18 22:54:00,
2013-02-18 17:03:00,-999.0,-99.9,-100.00,SSW,210,16.0,18.0,-999,-99.99,,,-99.99,,2013-02-18 23:03:00,
2013-02-18 17:12:00,-999.0,-99.9,-100.00,SSW,210,16.0,18.0,-999,-99.99,,,-99.99,,2013-02-18 23:12:00,
2013-02-18 17:43:00,-999.0,-99.9,-100.00,SSW,210,14.0,15.0,-999,-99.99,,,-99.99,,2013-02-18 23:43:00,
2013-02-18 17:54:00,-999.0,-99.9,-100.00,SSW,210,14.0,15.0,-999,-99.99,,,-99.99,,2013-02-18 23:54:00,
2013-02-18 18:03:00,-999.0,-99.9,-100.00,SSW,210,14.0,15.0,-999,-99.99,,,-99.99,,2013-02-19 00:03:00,
2013-02-18 18:13:00,-999.0,-99.9,-100.00,SSW,210,14.0,15.0,-999,-99.99,,,-99.99,,2013-02-19 00:13:00,
2013-02-18 18:15:00,-999.0,-99.9,-100.00,WSW,240,10.0,14.0,-999,-99.99,,,-99.99,,2013-02-19 00:15:00,
2013-02-18 18:23:00,-999.0,-99.9,-100.00,WSW,240,13.0,16.0,-999,-99.99,,,-99.99,,2013-02-19 00:23:00,
2013-02-18 18:36:00,-999.0,-99.9,-100.00,WSW,240,13.0,16.0,-999,-99.99,,,-99.99,,2013-02-19 00:36:00,
2013-02-18 18:44:00,-999.0,-99.9,-100.00,WSW,240,10.0,14.0,-999,-99.99,,,-99.99,,2013-02-19 00:44:00,
2013-02-18 18:55:00,-999.0,-99.9,-100.00,WSW,240,10.0,14.0,-999,-99.99,,,-99.99,,2013-02-19 00:55:00,
2013-02-18 19:04:00,-999.0,-99.9,-100.00,WSW,240,10.0,14.0,-999,-99.99,,,-99.99,,2013-02-19 01:04:00,
2013-02-18 19:15:00,-999.0,-99.9,-100.00,North,0,0.0,0.0,-999,-99.99,,,-99.99,,2013-02-19 01:15:00,
2013-02-18 19:25:00,-999.0,-99.9,-100.00,North,0,0.0,0.0,-999,-99.99,,,-99.99,,2013-02-19 01:25:00,
2013-02-18 19:35:00,-999.0,-99.9,-100.00,North,0,0.0,0.0,-999,-99.99,,,-99.99,,2013-02-19 01:35:00,
2013-02-18 19:46:00,-999.0,-99.9,-100.00,North,0,0.0,0.0,-999,-99.99,,,-99.99,,2013-02-19 01:46:00,
2013-02-18 19:57:00,-999.0,-99.9,-100.00,North,0,0.0,0.0,-999,-99.99,,,-99.99,,2013-02-19 01:57:00,
2013-02-18 20:15:00,-999.0,-99.9,-100.00,North,0,0.0,0.0,-999,-99.99,,,-99.99,,2013-02-19 02:15:00,
2013-02-18 20:23:00,-999.0,-99.9,-100.00,North,0,0.0,0.0,-999,-99.99,,,-99.99,,2013-02-19 02:23:00,
2013-02-18 20:35:00,-999.0,-99.9,-100.00,North,0,0.0,0.0,-999,-99.99,,,-99.99,,2013-02-19 02:35:00,
2013-02-18 20:44:00,-999.0,-99.9,-100.00,North,0,0.0,0.0,-999,-99.99,,,-99.99,,2013-02-19 02:44:00,
2013-02-18 20:56:00,-999.0,-99.9,-100.00,North,0,0.0,0.0,-999,-99.99,,,-99.99,,2013-02-19 02:56:00,
2013-02-18 21:00:00,-999.0,-99.9,-100.00,NNW,330,7.0,10.0,-999,-99.99,,,-99.99,,2013-02-19 03:00:00,
2013-02-18 21:08:00,-999.0,-99.9,-100.00,North,0,0.0,0.0,-999,-99.99,,,-99.99,,2013-02-19 03:08:00,
2013-02-18 21:25:00,-999.0,-99.9,-100.00,NNW,340,5.0,6.0,-999,-99.99,,,-99.99,,2013-02-19 03:25:00,
2013-02-18 21:36:00,-999.0,-99.9,-100.00,NNW,340,5.0,6.0,-999,-99.99,,,-99.99,,2013-02-19 03:36:00,
2013-02-18 21:45:00,-999.0,-99.9,-100.00,North,10,7.0,8.0,-999,-99.99,,,-99.99,,2013-02-19 03:45:00,
2013-02-18 21:46:00,-999.0,-99.9,-100.00,NNW,330,7.0,10.0,-999,-99.99,,,-99.99,,2013-02-19 03:46:00,
2013-02-18 21:55:00,-999.0,-99.9,-100.00,NNW,330,7.0,10.0,-999,-99.99,,,-99.99,,2013-02-19 03:55:00,
2013-02-18 22:24:00,-999.0,-99.9,-100.00,North,10,7.0,8.0,-999,-99.99,,,-99.99,,2013-02-19 04:24:00,
2013-02-18 22:34:00,-999.0,-99.9,-100.00,North,10,7.0,8.0,-999,-99.99,,,-99.99,,2013-02-19 04:34:00,
2013-02-18 23:43:00,-999.0,-99.9,-100.00,North,0,0.0,0.0,-999,-99.99,,,-99.99,,2013-02-19 05:43:00,
2013-02-18 23:53:00,-999.0,-99.9,-100.00,North,0,0.0,0.0,-999,-99.99,,,-99.99,,2013-02-19 05:53:00,